2024/01/29 00:00:00,41.6, 0.3
2024/01/29 00:10:00,41.6,-0.2
2024/01/29 00:20:00,41.5, 0.3
2024/01/29 00:30:00,41.4, 0.4
2024/01/29 00:40:00,41.4, 0.4
2024/01/29 00:50:00,41.4, 0.1
2024/01/29 01:00:00,41.2, 0.2
2024/01/29 01:10:00,41.2,-0.3
2024/01/29 01:20:00,41.2, 0.1
2024/01/29 01:30:00,41.2,-0.0
2024/01/29 01:40:00,58.5, 0.2
2024/01/29 01:50:00,41.0, 0.3
2024/01/29 02:00:00,40.8,-0.2
2024/01/29 02:10:00,40.7,-0.3
2024/01/29 02:20:00,40.7,-0.3
2024/01/29 02:30:00,40.7,-0.3
2024/01/29 02:40:00,40.8,-0.6
2024/01/29 02:50:00,40.7,-0.7
2024/01/29 03:00:00,40.7,-0.5
2024/01/29 03:10:00,40.7,-0.4
2024/01/29 03:20:00,40.7,-0.3
2024/01/29 03:30:00,40.7,-0.7
2024/01/29 03:40:00,40.6,-0.2
2024/01/29 03:50:00,40.5,-0.1
2024/01/29 04:00:00,40.5,-0.1
2024/01/29 04:10:00,40.6,-1.1
2024/01/29 04:20:00,40.7,-0.6
2024/01/29 04:30:00,40.8,-0.4
2024/01/29 04:40:00,40.5,-0.5
2024/01/29 04:50:00,40.4,-0.2
2024/01/29 05:00:00,40.3,-0.0
2024/01/29 05:10:00,40.2,-0.2
2024/01/29 05:20:00,40.2,-0.1
2024/01/29 05:30:00,40.3,-0.0
2024/01/29 05:40:00,40.2,-0.1
2024/01/29 05:50:00,40.2, 0.1
2024/01/29 06:00:00,40.2, 0.2
2024/01/29 06:10:00,40.1,-0.0
2024/01/29 06:20:00,40.1, 0.3
2024/01/29 06:30:00,40.1, 0.4
2024/01/29 06:40:00,40.1, 0.3
2024/01/29 06:50:00,40.0, 0.7
2024/01/29 07:00:00,40.0, 1.0
2024/01/29 07:10:00,40.0, 1.0
2024/01/29 07:20:00,40.0, 1.5
2024/01/29 07:30:00,40.0, 1.1
2024/01/29 07:40:00,39.9, 1.5
2024/01/29 07:50:00,39.7, 1.2
2024/01/29 08:00:00,39.7, 1.4
2024/01/29 08:10:00,39.7, 2.3
2024/01/29 08:20:00,39.6, 1.6
2024/01/29 08:30:00,39.6, 2.1
2024/01/29 08:40:00,39.6, 2.2
2024/01/29 08:50:00,39.5, 2.2
2024/01/29 09:00:00,74.4, 2.1
2024/01/29 09:10:00,97.6, 2.2
2024/01/29 09:20:00,97.4, 2.4
2024/01/29 09:30:00,62.6, 2.3
2024/01/29 09:40:00,39.3, 2.1
2024/01/29 09:50:00,39.2, 2.7
2024/01/29 10:00:00,39.0, 2.6
2024/01/29 10:10:00,38.8, 3.1
2024/01/29 10:20:00,38.5, 3.8
2024/01/29 10:30:00,38.2, 3.9
2024/01/29 10:40:00,37.9, 4.1
2024/01/29 10:50:00,38.0, 4.4
2024/01/29 11:00:00,38.0, 4.5
2024/01/29 11:10:00,37.7, 4.7
2024/01/29 11:20:00,37.7, 5.5
2024/01/29 11:30:00,37.8, 6.3
2024/01/29 11:40:00,37.8, 7.7
2024/01/29 11:50:00,37.8, 7.1
2024/01/29 12:00:00,38.0, 7.1
2024/01/29 12:10:00,37.7, 8.2
2024/01/29 12:20:00,---, 9.5
2024/01/29 12:30:00,---, 8.5
2024/01/29 12:40:00,37.6, 9.2
2024/01/29 12:50:00,37.5, 9.7
2024/01/29 13:00:00,---,10.3
2024/01/29 13:10:00,37.4, 8.9
2024/01/29 13:20:00,37.1,10.9
2024/01/29 13:30:00,37.0,10.6
2024/01/29 13:40:00,37.0, 9.7
2024/01/29 13:50:00,37.0,10.4
2024/01/29 14:00:00,36.7,11.6
2024/01/29 14:10:00,36.7,10.8
2024/01/29 14:20:00,36.6,11.4
2024/01/29 14:30:00,36.8,10.5
2024/01/29 14:40:00,36.8, 9.4
2024/01/29 14:50:00,36.6, 9.2
2024/01/29 15:00:00,36.3, 8.6
2024/01/29 15:10:00,36.1, 8.6
2024/01/29 15:20:00,36.1, 9.0
2024/01/29 15:30:00,36.1,11.0
2024/01/29 15:40:00,36.4, 9.7
2024/01/29 15:50:00,36.1,10.2
2024/01/29 16:00:00,36.0, 9.1
2024/01/29 16:10:00,35.8, 6.9
2024/01/29 16:20:00,35.6, 7.4
2024/01/29 16:30:00,35.6, 5.8
2024/01/29 16:40:00,35.6, 4.7
2024/01/29 16:50:00,35.7, 3.9
2024/01/29 17:00:00,35.8, 3.8
2024/01/29 17:10:00,35.8, 3.4
2024/01/29 17:20:00,35.7, 3.1
2024/01/29 17:30:00,35.7, 2.6
2024/01/29 17:40:00,35.6, 2.5
2024/01/29 17:50:00,35.6, 2.2
2024/01/29 18:00:00,35.4, 2.0
2024/01/29 18:10:00,35.3, 2.1
2024/01/29 18:20:00,35.2, 2.1
2024/01/29 18:30:00,35.1, 1.6
2024/01/29 18:40:00,35.1, 1.8
2024/01/29 18:50:00,35.0, 1.5
2024/01/29 19:00:00,35.0, 1.4
2024/01/29 19:10:00,35.0, 2.2
2024/01/29 19:20:00,34.9, 2.4
2024/01/29 19:30:00,34.8, 2.6
2024/01/29 19:40:00,34.8, 3.1
2024/01/29 19:50:00,34.6, 3.4
2024/01/29 20:00:00,34.6, 3.2
2024/01/29 20:10:00,34.6, 2.8
2024/01/29 20:20:00,34.4, 2.9
2024/01/29 20:30:00,34.3, 3.1
2024/01/29 20:40:00,34.2, 3.0
2024/01/29 20:50:00,33.9, 3.7
2024/01/29 21:00:00,33.9, 3.3
2024/01/29 21:10:00,33.8, 3.2
2024/01/29 21:20:00,33.7, 3.0
2024/01/29 21:30:00,33.6, 3.1
2024/01/29 21:40:00,33.6, 2.9
2024/01/29 21:50:00,33.4, 2.9
2024/01/29 22:00:00,33.4, 2.9
2024/01/29 22:10:00,33.3, 3.0
2024/01/29 22:20:00,33.3, 2.8
2024/01/29 22:30:00,33.3, 2.6
2024/01/29 22:40:00,33.2, 2.8
2024/01/29 22:50:00,33.0, 2.9
2024/01/29 23:00:00,32.7, 2.8
2024/01/29 23:10:00,32.7, 2.7
2024/01/29 23:20:00,32.6, 2.8
2024/01/29 23:30:00,32.5, 2.7
2024/01/29 23:40:00,32.6, 2.9
2024/01/29 23:50:00,32.6, 2.6
